CZ-6A DEB, 54540

Orbit data source: Space-Track

CZ-6A DEB, 54540 is space debris in SSO originally from a launch on Fri, 11 Nov 2022 UTC launched from the Taiyaun Space Center, China (TSC). Debris objects in space refer to the collection of defunct objects orbiting the Earth. Examples of debris include non-operational satellites, rocket bodies, and fragments generated from explosions, collisions, or faulty payload assembly.

Loading next visibility...
Identifier
54540, 2022-151KQ
Orbit
SSO
Country
Flag of CNCN / PRC
Related business
Manufacturer
SAST
Mission
Spacecraft
Bus & Motor
Unknown
Mass
Unknown
Launch date (UTC)
2022-11-11 (3 years ago)
Launch vehicle
Unknown
Launch site
Taiyaun Space Center, China (TSC)
Object type
Payload
Rocket body
Debris
Shape & HBR
Unknown shape, 0.3 m
Radar Cross Section
Small (<0.1 m²)

Expand to show TLE details & history
Last TLE update: 21 hours ago

TLE from 21 hours ago
0 CZ-6A DEB
1 54540U 22151KQ  25349.91450848  .00000776  00000-0  39574-3 0  9992
2 54540  98.7809 354.8095 0052544 155.5397 204.8288 14.17912905159657
Epoch: 2025-12-15T21:56Z
TLE epoch observation values (Epoch: 2025-12-15T21:56:53.532Z)
Latitude
-0.00005°
Longitude
-59.21978°
Altitude
869.756 km
Speed
7.4 km/s
True Right ascension
23h 39m 14s
True Declination
0° 00' 00"
Sunlit
Object was in daylight at epoch
Visualization orbit readout
Latitude
Unknown
Longitude
Unknown
Altitude
Unknown
Speed
Unknown
Apparent Right ascension
Unknown
Apparent Declination
Unknown
Sunlit
N/A
Visualization observer readout
Local Sidereal Time
17:45:04
Azimuth
Unknown
Elevation
Unknown
Doppler factor
Unknown
Orbital elements
Apogee altitude
867.457 km
Perigee altitude
791.712 km
Semi-major axis
7,207.722 km
Eccentricity
0.00525
Inclination
98.7809°
RAAN
354.8095°
Arg. of periapsis
155.5397°
True anomaly
204.57747°
Mean anomaly
204.8288°
Eccentric anomaly
204.70298°
Mean motion
3.54688 °/min
Orbital period
101.5 mins
BSTAR
0.00039574
Loading maneuver chart data...
Computing Atmospheric mass density...
Loading historical data...
Loading historical data...
Loading historical data...
Loading historical data...
Loading historical data...
Loading historical data...
Loading historical data...

Documentation

Showing up to 5 results
|